Weather History for Watsonville, CA

Change the Weather History Date:

Tuesday, May 14, 2013

  Actual Average Record
Temperature  
Mean Temperature 59 °F 59 °F  
Max Temperature 65 °F 70 °F 97 °F (2014)
Min Temperature 52 °F 48 °F 42 °F (1999)
Degree Days  
Heating Degree Days 6    
Month to date heating degree days 65  
Since 1 July heating degree days 2817  
Cooling Degree Days 0    
Month to date cooling degree days 6  
Year to date cooling degree days 6  
Growing Degree Days 8 (Base 50)    
Moisture  
Dew Point 50 °F    
Average Humidity 77    
Maximum Humidity 93    
Minimum Humidity 60    
Precipitation  
Precipitation 0.00 in - 0.27 in (2011)
Month to date precipitation T  
Year to date precipitation 2.34  
Since 1 July precipitation 13.28  
Sea Level Pressure  
Sea Level Pressure 30.02 in    
Wind  
Wind Speed 5 mph (ESE)    
Max Wind Speed 12 mph    
Max Gust Speed 17 mph    
Visibility 10 miles    
Events      
T = Trace of Precipitation, MM = Missing Value Source: NWS Daily Summary

Daily Weather History Graph

Daily Weather History Graph

Search for Another Location

Airport:

Trip Planner

Search our weather history database for the weather conditions in past years. The results will help you decide how hot, cold, wet, or windy it might be!

Date:

Astronomy

May. 14, 2013 Rise Set
Actual Time 5:59 AM PDT 8:07 PM PDT
Civil Twilight 5:30 AM PDT 8:36 PM PDT
Nautical Twilight 4:55 AM PDT 9:12 PM PDT
Astronomical Twilight 4:17 AM PDT 9:50 PM PDT
Moon 9:44 AM PDT (5/14) 11:59 PM PDT (5/14)
Length of Visible Light 15h 05m
Length of Day
14h 07m
Waxing Crescent, 19% of the Moon is Illuminated
May 14
Waxing Crescent
May 17
First Quarter
May 24
Full
May 31
Last Quarter
Jun 8
New

Hourly Weather History & Observations

Time (PDT) Temp. Dew Point Humidity Pressure Visibility Wind Dir Wind Speed Gust Speed Precip Events Conditions
12:53 AM 54.0 °F 51.1 °F 90% 30.01 in 10.0 mi ESE 3.5 mph - N/A   Overcast
1:53 AM 54.0 °F 50.0 °F 86% 30.01 in 10.0 mi ENE 4.6 mph - N/A   Overcast
2:48 AM 53.6 °F 51.8 °F 94% 30.00 in 5.0 mi NNE 3.5 mph - N/A   Overcast
2:53 AM 54.0 °F 51.1 °F 90% 29.99 in 5.0 mi North 3.5 mph - N/A   Overcast
3:44 AM 53.6 °F 50.0 °F 88% 30.00 in 9.0 mi SE 4.6 mph - N/A   Overcast
3:53 AM 53.1 °F 50.0 °F 89% 30.00 in 9.0 mi SE 4.6 mph - N/A   Overcast
4:37 AM 53.6 °F 50.0 °F 88% 30.00 in 10.0 mi Calm Calm - N/A   Overcast
4:53 AM 53.1 °F 50.0 °F 89% 29.99 in 10.0 mi Calm Calm - N/A   Overcast
5:53 AM 54.0 °F 51.1 °F 90% 29.99 in 10.0 mi ESE 4.6 mph - N/A   Overcast
6:08 AM 53.6 °F 50.0 °F 88% 30.00 in 10.0 mi SSE 4.6 mph - N/A   Overcast
6:53 AM 54.0 °F 48.9 °F 83% 30.00 in 10.0 mi East 4.6 mph - N/A   Overcast
7:53 AM 54.0 °F 48.9 °F 83% 30.01 in 10.0 mi Calm Calm - N/A   Overcast
8:53 AM 55.9 °F 48.9 °F 77% 30.02 in 10.0 mi Calm Calm - N/A   Overcast
9:53 AM 55.9 °F 48.0 °F 75% 30.03 in 10.0 mi SE 5.8 mph - N/A   Overcast
10:32 AM 57.2 °F 48.2 °F 72% 30.03 in 10.0 mi Variable 3.5 mph - N/A   Overcast
10:53 AM 57.9 °F 48.9 °F 72% 30.04 in 10.0 mi South 3.5 mph - N/A   Overcast
11:53 AM 60.1 °F 50.0 °F 69% 30.05 in 10.0 mi SSW 5.8 mph - N/A   Overcast
12:53 PM 62.1 °F 50.0 °F 65% 30.04 in 10.0 mi South 9.2 mph - N/A   Overcast
1:53 PM 61.0 °F 48.9 °F 64% 30.04 in 10.0 mi SSW 6.9 mph - N/A   Overcast
2:53 PM 64.9 °F 51.1 °F 61% 30.03 in 10.0 mi SW 9.2 mph - N/A   Mostly Cloudy
3:11 PM 62.6 °F 50.0 °F 63% 30.02 in 10.0 mi Variable 5.8 mph - N/A   Scattered Clouds
3:53 PM 63.0 °F 48.9 °F 60% 30.02 in 10.0 mi South 9.2 mph - N/A   Clear
4:53 PM 61.0 °F 50.0 °F 67% 30.02 in 10.0 mi ESE 8.1 mph - N/A   Clear
5:53 PM 60.1 °F 50.0 °F 69% 30.02 in 10.0 mi ESE 10.4 mph - N/A   Clear
6:53 PM 57.9 °F 48.9 °F 72% 30.02 in 10.0 mi East 8.1 mph - N/A   Clear
7:53 PM 55.9 °F 48.9 °F 77% 30.03 in 10.0 mi ENE 8.1 mph - N/A   Clear
8:53 PM 54.0 °F 48.9 °F 83% 30.05 in 10.0 mi NE 5.8 mph - N/A   Clear
9:53 PM 53.1 °F 48.0 °F 83% 30.06 in 10.0 mi Calm Calm - N/A   Clear
10:13 PM 53.6 °F 48.2 °F 82% 30.07 in 10.0 mi North 3.5 mph - N/A   Mostly Cloudy
10:53 PM 53.1 °F 48.0 °F 83% 30.08 in 10.0 mi NE 6.9 mph - N/A   Overcast
11:53 PM 53.1 °F 48.0 °F 83% 30.08 in 10.0 mi NE 4.6 mph - N/A   Overcast